Torna al catalogo

COSMOS 1275 DEB

LostPO
NORAD 42222·DEBRIS·🇷🇺 Russia

Lanciato Jun 4, 1981 da Plesetsk Cosmodrome

Loading…

Prossimi Passaggi (prossime 24 ore)

TLE

ObsoletoSource: Space-Track

Epoca: Jun 10, 2024, 21:30 UTC

1 42222U 81053UN  24162.89616937  .00005579  00000-0  32641-2 0  9997
2 42222  82.9753  14.1243 0064435 188.8844 171.1195 14.07111834 96815

Traccia COSMOS 1275 DEB in tempo reale con AllMySat

Download on the App Store